Location: Unspecified
(0.0000°N, 0.0000°E)
Time: 18:21:35
(UTC+00:00)

AO-73 - Pass Details

Date: 27 September 2021
Orbit: 580 x 662 km, 97.6° (Epoch: 22 October)

Event Time Altitude Azimuth Distance (km) Brightness Sun altitude
Rises 04:19:39 0° 9° (N) 2,787 ? -22.8°
Reaches altitude 10° 04:21:48 10° 8° (N) 1,887 ? -22.3°
Maximum altitude 04:25:52 78° 281° (WNW) 594 ? -21.3°
Drops below altitude 10° 04:29:58 10° 195° (SSW) 1,898 ? -20.3°
Sets 04:32:08 0° 193° (SSW) 2,805 ? -19.7°
